Pittsburg, KS

2:22 PM CST on December 15, 2017 (GMT -0600)
Atkinson Municipal

Weather History for KPTS - May, 2014

Change the Weather History Date:

Monday, May 19, 2014

  Actual Average (KJLN) Record (KJLN)
Temperature  
Mean Temperature 70 °F -  
Max Temperature 83 °F 77 °F 91 °F (1987)
Min Temperature 58 °F 56 °F 43 °F (1993)
Cooling Degree Days 6    
Growing Degree Days 20 (Base 50)    
Moisture  
Dew Point 57 °F    
Average Humidity 63    
Maximum Humidity 100    
Minimum Humidity 32    
Precipitation  
Precipitation 0.00 in - - ()
Sea Level Pressure  
Sea Level Pressure 29.89 in    
Wind  
Wind Speed 15 mph (South)    
Max Wind Speed 30 mph    
Max Gust Speed 40 mph    
Visibility 10 miles    
Events      
Averages and records for this station are not official NWS values.
T = Trace of Precipitation, MM = Missing Value Source: NWS Daily Summary

Daily Weather History Graph

Daily Weather History Graph

Search for Another Location

Airport or City:

Trip Planner

Search our weather history database for the weather conditions in past years. The results will help you decide how hot, cold, wet, or windy it might be!

Date:

Astronomy

May. 19, 2014 Rise Set
Actual Time 6:06 AM CDT 8:24 PM CDT
Civil Twilight 5:37 AM CDT 8:54 PM CDT
Nautical Twilight 5:00 AM CDT 9:30 PM CDT
Astronomical Twilight 4:21 AM CDT 10:10 PM CDT
Moon 12:14 AM CDT (5/19) 11:03 AM CDT (5/19)
Length of Visible Light 15h 17m
Length of Day
14h 17m
Waning Gibbous, 71% of the Moon is Illuminated
May 19
Waning Gibbous
May 21
Last Quarter
May 28
New
Jun 5
First Quarter
Jun 12
Full

Hourly Weather History & Observations

Time (CDT) Temp. Heat Index Dew Point Humidity Pressure Visibility Wind Dir Wind Speed Gust Speed Precip Events Conditions
12:15 AM 62.1 °F - 54.9 °F 77% 30.02 in 10.0 mi SSE 10.4 mph - N/A   Unknown
12:35 AM 62.1 °F - 55.2 °F 78% 30.02 in 10.0 mi SSE 11.5 mph - N/A   Unknown
1:15 AM 61.3 °F - 55.0 °F 80% 30.02 in 10.0 mi SSE 11.5 mph - N/A   Unknown
1:35 AM 61.0 °F - 55.0 °F 81% 30.01 in 10.0 mi SSE 10.4 mph - N/A   Unknown
1:55 AM 60.8 °F - 55.8 °F 83% 30.00 in 10.0 mi SSE 8.1 mph - N/A   Unknown
2:15 AM 60.8 °F - 56.5 °F 86% 30.00 in 10.0 mi SSE 9.2 mph - N/A   Unknown
2:35 AM 60.8 °F - 57.2 °F 88% 29.99 in 10.0 mi SSE 8.1 mph - N/A   Unknown
2:55 AM 60.8 °F - 57.9 °F 90% 29.99 in 10.0 mi SSE 9.2 mph - N/A   Unknown
3:15 AM 60.8 °F - 58.6 °F 93% 29.98 in 10.0 mi SE 8.1 mph - N/A   Unknown
3:35 AM 60.4 °F - 59.2 °F 96% 29.98 in 10.0 mi SSE 6.9 mph - N/A   Unknown
3:55 AM 58.8 °F - 58.8 °F 100% 29.98 in 10.0 mi SSE 8.1 mph - N/A   Unknown
4:35 AM 58.6 °F - 58.6 °F 100% 29.97 in 10.0 mi SSE 9.2 mph - N/A   Unknown
4:55 AM 58.6 °F - 58.6 °F 100% 29.97 in 10.0 mi SSE 10.4 mph - N/A   Unknown
5:15 AM 58.6 °F - 58.6 °F 100% 29.97 in 10.0 mi SSE 9.2 mph - N/A   Unknown
5:35 AM 59.0 °F - 59.0 °F 100% 29.97 in 10.0 mi SSE 10.4 mph - N/A   Unknown
5:55 AM 59.9 °F - 60.1 °F 100% 29.97 in 10.0 mi SSE 10.4 mph - N/A   Unknown
6:15 AM 60.6 °F - 60.8 °F 100% 29.97 in 10.0 mi SSE 10.4 mph 18.4 mph N/A   Unknown
6:35 AM 60.8 °F - 61.0 °F 100% 29.97 in 10.0 mi SSE 13.8 mph 18.4 mph N/A   Unknown
6:55 AM 60.8 °F - 61.0 °F 100% 29.97 in 7.0 mi South 13.8 mph 24.2 mph N/A   Unknown
7:15 AM 61.7 °F - 61.9 °F 100% 29.97 in 7.0 mi South 13.8 mph 18.4 mph N/A   Unknown
7:35 AM 62.8 °F - 62.4 °F 99% 29.97 in 7.0 mi South 13.8 mph 20.7 mph N/A   Unknown
9:35 AM 70.9 °F - 62.1 °F 74% 29.94 in 10.0 mi South 16.1 mph 27.6 mph N/A   Unknown
9:55 AM 70.9 °F - 60.3 °F 69% 29.93 in 10.0 mi South 18.4 mph 31.1 mph N/A   Unknown
10:15 AM 71.6 °F - 59.2 °F 65% 29.92 in 10.0 mi South 21.9 mph 31.1 mph N/A   Unknown
10:35 AM 74.3 °F - 59.7 °F 60% 29.92 in 10.0 mi South 21.9 mph 33.4 mph N/A   Unknown
10:55 AM 75.9 °F - 59.2 °F 56% 29.90 in 10.0 mi South 24.2 mph 34.5 mph N/A   Unknown
11:15 AM 76.1 °F - 57.4 °F 52% 29.89 in 10.0 mi SSW 25.3 mph 38.0 mph N/A   Unknown
11:35 AM 76.3 °F - 55.0 °F 48% 29.88 in 10.0 mi SSW 23.0 mph 38.0 mph N/A   Unknown
11:55 AM 78.3 °F - 54.3 °F 43% 29.87 in 10.0 mi SSW 23.0 mph 36.8 mph N/A   Unknown
12:15 PM 78.4 °F - 53.1 °F 41% 29.86 in 10.0 mi SSW 27.6 mph 40.3 mph N/A   Unknown
12:35 PM 78.4 °F - 52.0 °F 40% 29.86 in 10.0 mi SSW 25.3 mph 32.2 mph N/A   Unknown
12:55 PM 78.6 °F - 52.5 °F 40% 29.85 in 10.0 mi South 20.7 mph 33.4 mph N/A   Unknown
1:15 PM 78.4 °F - 52.2 °F 40% 29.84 in 10.0 mi SSW 23.0 mph 32.2 mph N/A   Unknown
1:35 PM 79.5 °F - 52.2 °F 38% 29.84 in 10.0 mi South 20.7 mph 29.9 mph N/A   Unknown
1:55 PM 80.6 °F - 51.6 °F 36% 29.83 in 10.0 mi SSW 27.6 mph 35.7 mph N/A   Unknown
2:15 PM 80.1 °F - 50.5 °F 36% 29.83 in 10.0 mi SSW 19.6 mph 32.2 mph N/A   Unknown
2:35 PM 81.0 °F - 52.9 °F 38% 29.83 in 10.0 mi SSW 19.6 mph 25.3 mph N/A   Unknown
3:15 PM 82.4 °F - 52.7 °F 36% 29.81 in 10.0 mi South 25.3 mph 33.4 mph N/A   Unknown
3:35 PM 83.3 °F - 51.3 °F 33% 29.80 in 10.0 mi South 24.2 mph 32.2 mph N/A   Unknown
3:55 PM 83.5 °F - 51.3 °F 33% 29.80 in 10.0 mi SSW 28.8 mph 36.8 mph N/A   Unknown
4:15 PM 83.5 °F - 50.5 °F 32% 29.80 in 10.0 mi SSW 19.6 mph 34.5 mph N/A   Unknown
4:35 PM 83.3 °F - 51.6 °F 33% 29.79 in 10.0 mi SSW 21.9 mph 35.7 mph N/A   Unknown
4:55 PM 82.8 °F - 51.3 °F 33% 29.80 in 10.0 mi SW 25.3 mph 40.3 mph N/A   Unknown
5:15 PM 82.4 °F - 52.3 °F 35% 29.80 in 10.0 mi SW 29.9 mph 35.7 mph N/A   Unknown
5:55 PM 81.1 °F 80.6 °F 53.2 °F 38% 29.80 in 10.0 mi SSW 25.3 mph 34.5 mph N/A   Unknown
6:15 PM 81.0 °F 80.6 °F 54.3 °F 40% 29.80 in 10.0 mi SSW 21.9 mph 33.4 mph N/A   Unknown
6:35 PM 81.0 °F 80.7 °F 55.2 °F 41% 29.79 in 10.0 mi SSW 23.0 mph 32.2 mph N/A   Unknown
6:55 PM 80.8 °F 80.8 °F 56.5 °F 43% 29.79 in 10.0 mi SSW 25.3 mph 33.4 mph N/A   Unknown
7:15 PM 78.8 °F - 56.1 °F 46% 29.79 in 10.0 mi SSW 16.1 mph 32.2 mph N/A   Unknown
7:35 PM 78.4 °F - 57.0 °F 48% 29.80 in 10.0 mi SSW 17.3 mph 28.8 mph N/A   Unknown
7:55 PM 78.1 °F - 57.9 °F 50% 29.81 in 10.0 mi South 15.0 mph 21.9 mph N/A   Unknown
8:15 PM 76.3 °F - 57.2 °F 52% 29.81 in 10.0 mi SSW 17.3 mph 21.9 mph N/A   Unknown
8:35 PM 76.1 °F - 58.3 °F 54% 29.82 in 10.0 mi SSW 17.3 mph - N/A   Unknown
8:55 PM 76.1 °F - 59.4 °F 56% 29.82 in 10.0 mi South 13.8 mph 20.7 mph N/A   Unknown
9:15 PM 76.1 °F - 59.9 °F 57% 29.83 in 10.0 mi SSW 12.7 mph 18.4 mph N/A   Unknown
9:35 PM 76.1 °F - 60.6 °F 59% 29.83 in 10.0 mi SSW 12.7 mph 19.6 mph N/A   Unknown
9:55 PM 75.2 °F - 60.3 °F 60% 29.83 in 10.0 mi SSW 15.0 mph 20.7 mph N/A   Unknown
10:15 PM 73.8 °F - 59.4 °F 61% 29.84 in 10.0 mi SSW 15.0 mph 21.9 mph N/A   Unknown
10:35 PM 73.4 °F - 59.4 °F 61% 29.84 in 10.0 mi SSW 15.0 mph 23.0 mph N/A   Unknown
10:55 PM 73.4 °F - 59.7 °F 62% 29.85 in 10.0 mi SSW 13.8 mph 20.7 mph N/A   Unknown
11:15 PM 72.3 °F - 59.4 °F 64% 29.84 in 10.0 mi SSW 17.3 mph 20.7 mph N/A   Unknown
11:35 PM 72.1 °F - 59.7 °F 65% 29.84 in 10.0 mi SSW 19.6 mph 23.0 mph N/A   Unknown
11:55 PM 71.8 °F - 59.7 °F 66% 29.84 in 10.0 mi SSW 15.0 mph 24.2 mph N/A   Unknown